Location: Focicchia
(42.2496°N, 9.2935°E)
Time: 02:39:21
(UTC+00:00)

X-37B - Pass Details

Date: 06 August 2021
Orbit: 381 x 393 km, 45.0° (Epoch: 29 August)

Event Time Altitude Azimuth Distance (km) Brightness Sun altitude
Exits shadow 01:56:52 42° 73° (ENE) 554 1.7 -21.9°
Drops below altitude 10° 01:59:05 10° 72° (ENE) 1,397 4.2 -21.7°
Sets 02:01:09 0° 72° (ENE) 2,252 5.4 -21.4°
